{"data":{"norad_id":58796,"intl_designator":"2024-012K","name":"STARLINK-31195","alt_names":[],"object_type":"PAYLOAD","status":"ACTIVE","operator":null,"country":"US","launch_date":"2024-01-15","launch_site_code":"AFETR","launch_vehicle":null,"mission":null,"orbit_class":"UNKNOWN","rcs_meters":null,"size_class":null,"mass_kg":null,"dimensions":null,"purposes":["comms"],"wikipedia_slug":null,"has_3d_model":false,"image_url":null,"decayed_at":null,"tle_current":{"epoch":"2026-09-20T00:51:09.207936Z","epoch_age_seconds":192725,"freshness":"STALE","line1":"1 58796U 24012K   26263.03552324  .00000040  00000+0  10985-4 0  9997","line2":"2 58796  42.9999 148.1136 0001137 280.1847  79.8877 15.27577673150951","mean_motion":15.27577673,"eccentricity":0.0001137,"inclination_deg":42.9999,"raan_deg":148.1136,"arg_perigee_deg":280.1847,"mean_anomaly_deg":79.8877,"bstar":1.0985e-5,"rev_number":15095,"period_min":94.266892312716,"perigee_km":482.27594627226,"apogee_km":483.836181575,"semimajor_km":6861.1930639236,"source":"CELESTRAK","updated_at":"2026-09-21T09:00:33.980361Z"}}}